GORIZONT 14 [-]

Last updated on Oct. 25, 2020, 5:56 a.m. UTC

1 17969U 87040A   20298.27729267 -.00000064  00000-0  00000-0 0  9995
2 17969  14.1297 335.6664 0028533 156.9984 245.8657  0.97657777 99723
UTC
Height (km)
Latitude
Longitude
Inclination
Orbital Period
UTC large
Height (km)
Speed (km/s)
/
Latitude / Longitude
Inclination (degrees)
Orbital Period (minutes)
Azimuth
Elevation
Range (km)
Doppler Factor
iOS Compass Heading
iOS Angle

Next 30 passes for location: Hong Kong

Rise time Rise Azimuth (degrees) Set time Set Azimuth (degrees) Duration Max altitude (degrees)

No matching passes for this satellites